Waarnemingen

Advertentie
Mijn weer
Berus, Duitsland (10704): temperatuur & dauwpunt: 19.02.2018 20:00:00 - 25.02.2018 20:00:00 (CET)Berus, Duitsland (10704): temperatuur 5cm & temperatuur -5cm: 19.02.2018 20:00:00 - 25.02.2018 20:00:00 (CET)Berus, Duitsland (10704): temperatuur -20cm & temperatuur -100cm: 19.02.2018 20:00:00 - 25.02.2018 20:00:00 (CET)Berus, Duitsland (10704): windsnelheid & windstoten: 19.02.2018 20:00:00 - 25.02.2018 20:00:00 (CET)Berus, Duitsland (10704): windrichting: 19.02.2018 20:00:00 - 25.02.2018 20:00:00 (CET)Berus, Duitsland (10704): luchtdruk: 19.02.2018 20:00:00 - 25.02.2018 20:00:00 (CET)Berus, Duitsland (10704): zicht: 19.02.2018 20:00:00 - 25.02.2018 20:00:00 (CET)Berus, Duitsland (10704): Zonneschijnduur: 19.02.2018 20:00:00 - 25.02.2018 20:00:00 (CET)Berus, Duitsland (10704): neerslag: 19.02.2018 20:00:00 - 25.02.2018 20:00:00 (CET)
Datum & Tijd tt [°C] td [°C] tt 5cm [°C] tt -5cm [°C] tt -20cm [°C] tt -100cm [°C] ff [km/u] ff [kn] fx [km/u] fx [kn] dd ppp [hPa] vv [km] sd [min] rr [mm]
25.02.2018 20:00:00 -4,4 -16,5 -5,9 -0,1 0,4 4,2 24 13 40 21 NO 1025,1 70 0 0,0
25.02.2018 19:00:00 -4,0 -16,4 -5,4 -0,1 0,4 4,2 23 12 46 25 NO 1024,8 60 0 0,0
25.02.2018 18:00:00 -3,3 -16,8 -4,3 -0,1 0,4 4,2 30 16 47 26 NO 1024,3 56 49 0,0
25.02.2018 17:00:00 -2,4 -18,1 -1,9 -0,1 0,4 4,2 29 16 49 26 ONO 1023,9 49 60 0,0
25.02.2018 16:00:00 -1,7 -17,4 0,5 -0,2 0,4 4,2 32 17 53 29 NO 1023,9 35 60 0,0
25.02.2018 15:00:00 -1,8 -18,0 1,2 -0,3 0,5 4,2 32 17 50 27 ONO 1024,0 28 60 0,0
25.02.2018 14:00:00 -2,1 -17,2 1,4 -0,4 0,5 4,2 32 17 51 28 NO 1024,4 31 60 0,0
25.02.2018 13:00:00 -3,0 -15,8 0,0 -0,5 0,5 4,2 34 19 54 29 NO 1024,6 22 60 0,0
25.02.2018 12:00:00 -3,6 -15,6 -0,7 -0,7 0,5 4,2 35 19 55 30 ONO 1025,3 20 60 0,0
25.02.2018 11:00:00 -4,7 -14,6 -1,6 -1,1 0,5 4,3 30 16 61 33 NO 1025,6 16 60 0,0
25.02.2018 10:00:00 -5,9 -14,0 -4,0 -1,8 0,5 4,3 27 14 52 28 NO 1025,7 - 60 0,0
25.02.2018 09:00:00 -7,0 -13,3 -6,2 -2,3 0,5 4,3 33 18 56 31 ONO 1025,4 22 56 0,0
25.02.2018 08:00:00 -7,5 -13,1 -8,5 -2,3 0,6 4,3 30 16 58 31 NO 1025,4 31 0 0,0
25.02.2018 07:00:00 -7,0 -13,3 -8,1 -2,0 0,6 4,3 33 18 53 29 NO 1024,7 37 0 0,0
25.02.2018 06:00:00 -6,5 -12,9 -7,6 -1,8 0,6 4,3 32 18 56 30 ONO 1024,1 43 0 0,0
25.02.2018 05:00:00 -5,9 -13,3 -6,8 -1,6 0,6 4,3 38 21 59 32 ONO 1023,5 47 0 0,0
25.02.2018 04:00:00 -5,4 -12,6 -6,4 -1,3 0,6 4,3 39 21 58 32 ONO 1023,0 59 0 0,0
25.02.2018 03:00:00 -4,8 -12,2 -5,9 -1,0 0,6 4,3 35 19 61 33 ONO 1023,0 64 0 0,0
25.02.2018 02:00:00 -4,2 -12,1 -5,3 -0,7 0,6 4,3 39 21 60 32 NO 1022,6 67 0 0,0
25.02.2018 01:00:00 -3,7 -12,1 -4,7 -0,2 0,6 4,3 39 21 64 35 ONO 1022,3 70 0 0,0
25.02.2018 00:00:00 -3,1 -11,9 -4,1 0,0 0,6 4,3 44 24 64 35 ONO 1022,0 65 0 0,0
24.02.2018 23:00:00 -2,8 -11,5 -3,8 0,0 0,6 4,3 39 21 63 34 ONO 1022,0 51 0 0,0
24.02.2018 22:00:00 -2,4 -11,4 -3,6 0,0 0,6 4,3 38 20 61 33 ONO 1021,7 40 0 0,0
24.02.2018 21:00:00 -2,2 -10,1 -3,3 0,0 0,7 4,3 36 19 56 31 NO 1021,5 27 0 0,0
24.02.2018 20:00:00 -1,8 -9,3 -2,8 0,0 0,7 4,3 40 22 59 32 NO 1020,8 27 0 0,0
24.02.2018 19:00:00 -0,3 -8,4 -1,4 0,0 0,7 4,3 41 22 68 37 NO 1020,2 34 0 0,0
24.02.2018 18:00:00 1,0 -8,7 -0,2 0,0 0,7 4,3 37 20 59 32 NO 1019,1 33 47 0,0
24.02.2018 17:00:00 2,8 -10,5 2,4 -0,1 0,7 4,3 39 21 69 37 NO 1018,5 42 60 0,0
24.02.2018 16:00:00 2,9 -11,8 4,0 -0,1 0,7 4,3 44 24 66 35 ONO 1017,8 21 60 0,0
24.02.2018 15:00:00 3,0 -11,8 4,9 -0,2 0,7 4,3 38 20 68 37 ONO 1017,9 17 60 0,0
24.02.2018 14:00:00 2,2 -12,7 4,0 -0,2 0,7 4,3 43 23 64 35 ONO 1017,9 17 60 0,0
24.02.2018 13:00:00 1,0 -13,3 2,7 -0,3 0,7 4,3 44 24 73 40 ONO 1018,2 12 60 0,0
24.02.2018 12:00:00 -0,3 -12,4 1,9 -0,4 0,7 4,3 37 20 70 38 NO 1018,6 13 60 0,0
24.02.2018 11:00:00 -1,7 -11,3 0,6 -0,6 0,7 4,4 41 22 61 33 NO 1018,6 12 60 0,0
24.02.2018 10:00:00 -3,5 -10,6 -1,9 -1,0 0,7 4,4 34 18 55 30 NO 1019,1 11 60 0,0
24.02.2018 09:00:00 -5,1 -10,6 -4,6 -1,4 0,8 4,4 36 20 55 30 NO 1019,1 11 52 0,0
24.02.2018 08:00:00 -6,0 -10,5 -6,8 -1,4 0,8 4,4 34 18 52 28 NO 1019,1 10 0 0,0
24.02.2018 07:00:00 -5,8 -10,4 -6,7 -1,2 0,8 4,4 33 18 53 28 NO 1018,5 11 0 0,0
24.02.2018 06:00:00 -5,4 -10,2 -6,3 -1,0 0,8 4,4 34 18 54 29 NO 1018,0 11 0 0,0
24.02.2018 05:00:00 -5,2 -10,2 -6,1 -0,8 0,8 4,4 31 17 52 28 NO 1017,7 12 0 0,0
24.02.2018 04:00:00 -4,8 -10,0 -5,6 -0,4 0,9 4,4 33 18 53 29 NO 1017,9 11 0 0,0
24.02.2018 03:00:00 -4,4 -9,8 -5,3 -0,1 0,9 4,4 29 16 45 25 NO 1018,1 12 0 0,0
24.02.2018 02:00:00 -3,9 -9,8 -4,8 0,0 0,9 4,4 30 16 44 24 NO 1018,1 13 0 0,0
24.02.2018 01:00:00 -3,6 -10,0 -4,5 0,0 0,9 4,4 31 17 51 27 NO 1017,8 14 0 0,0
24.02.2018 00:00:00 -3,0 -10,0 -4,0 0,0 0,9 4,4 32 17 48 26 NO 1017,6 16 0 0,0
23.02.2018 23:00:00 -2,5 -10,1 -3,6 0,0 0,9 4,4 32 17 49 27 NO 1017,8 18 0 0,0
23.02.2018 22:00:00 -2,1 -10,0 -3,2 0,0 0,9 4,4 30 16 47 26 NO 1017,6 18 0 0,0
23.02.2018 21:00:00 -1,9 -9,8 -2,9 0,0 0,9 4,4 28 15 41 22 NO 1017,6 17 0 0,0
23.02.2018 20:00:00 -1,7 -9,8 -2,8 0,0 0,9 4,4 29 15 45 24 NO 1017,6 17 0 0,0
23.02.2018 19:00:00 -1,2 -9,9 -2,4 0,0 0,9 4,4 30 16 51 28 NO 1017,3 19 0 0,0
23.02.2018 18:00:00 -0,7 -9,9 -1,7 0,0 0,9 4,4 31 17 48 26 NO 1017,0 21 43 0,0
23.02.2018 17:00:00 0,2 -9,3 -0,1 0,0 0,9 4,4 29 16 54 29 NO 1016,6 24 60 0,0
23.02.2018 16:00:00 0,7 -8,5 2,6 -0,1 0,9 4,4 32 17 55 30 NO 1016,4 18 60 0,0
23.02.2018 15:00:00 0,7 -8,3 3,0 -0,1 1,0 4,4 33 18 53 29 NO 1016,4 17 60 0,0
23.02.2018 14:00:00 0,5 -8,4 3,4 -0,1 1,0 4,4 29 16 52 28 NO 1016,8 18 60 0,0
23.02.2018 13:00:00 -0,1 -8,5 2,4 -0,2 1,0 4,4 31 17 53 28 NO 1017,4 21 60 0,0
23.02.2018 12:00:00 -1,2 -9,1 1,4 -0,2 1,0 4,4 31 17 50 27 NO 1017,8 18 60 0,0
23.02.2018 11:00:00 -2,1 -9,5 0,2 -0,3 1,0 4,4 31 17 54 29 ONO 1018,4 16 60 0,0
23.02.2018 10:00:00 -3,0 -9,7 -1,3 -0,4 1,1 4,4 35 19 59 32 NO 1018,1 24 60 0,0
23.02.2018 09:00:00 -4,0 -10,1 -3,9 -0,4 1,1 4,4 36 19 51 28 NO 1018,2 26 49 0,0
23.02.2018 08:00:00 -4,6 -10,0 -5,6 -0,2 1,1 4,4 32 17 49 26 NO 1018,1 25 0 0,0
23.02.2018 07:00:00 -4,5 -9,7 -5,6 0,0 1,1 4,4 27 15 45 24 NO 1018,0 24 0 0,0
23.02.2018 06:00:00 -4,2 -9,5 -5,3 0,0 1,2 4,4 32 17 48 26 NO 1017,9 24 0 0,0
23.02.2018 05:00:00 -3,9 -9,4 -5,1 0,1 1,2 4,4 32 17 52 28 NO 1017,7 26 0 0,0
23.02.2018 04:00:00 -3,6 -9,4 -4,7 0,1 1,2 4,4 34 18 51 27 NO 1017,9 27 0 0,0
23.02.2018 03:00:00 -3,3 -9,3 -4,4 0,1 1,3 4,4 32 17 51 28 NO 1018,2 28 0 0,0
23.02.2018 02:00:00 -3,0 -9,1 -4,2 0,2 1,3 4,4 33 18 53 28 NO 1018,2 28 0 0,0
23.02.2018 01:00:00 -2,8 -9,1 -4,0 0,2 1,3 4,4 31 17 52 28 NO 1018,6 29 0 0,0
23.02.2018 00:00:00 -2,4 -9,1 -3,6 0,3 1,3 4,4 31 17 54 29 NO 1018,9 32 0 0,0
22.02.2018 23:00:00 -2,2 -8,9 -3,3 0,3 1,3 4,4 33 18 51 28 NO 1018,6 35 0 0,0
22.02.2018 22:00:00 -1,8 -8,5 -3,1 0,4 1,4 4,4 30 16 49 27 NO 1018,9 32 0 0,0
22.02.2018 21:00:00 -1,3 -8,6 -2,5 0,5 1,4 4,4 31 17 48 26 NO 1018,7 36 0 0,0
22.02.2018 20:00:00 -0,7 -8,4 -1,5 0,5 1,4 4,4 33 18 52 28 NO 1018,6 42 0 0,0
22.02.2018 19:00:00 -0,3 -8,3 -0,9 0,6 1,4 4,4 33 18 54 29 NO 1018,2 40 0 0,0
22.02.2018 18:00:00 0,2 -8,6 -0,3 0,8 1,3 4,4 35 19 56 31 NO 1017,6 43 3 0,0
22.02.2018 17:00:00 0,5 -8,5 0,0 1,4 1,3 4,4 37 20 61 33 NO 1017,5 33 30 0,0
22.02.2018 16:00:00 1,3 -8,2 2,9 0,9 1,3 4,4 36 19 65 35 NO 1017,4 28 57 0,0
22.02.2018 15:00:00 1,6 -8,4 4,0 0,1 1,3 4,4 35 19 59 32 NO 1017,2 19 60 0,0
22.02.2018 14:00:00 1,5 -8,6 4,2 0,1 1,3 4,4 34 18 61 33 NO 1017,7 30 59 0,0
22.02.2018 13:00:00 1,3 -9,2 3,0 0,1 1,4 4,4 37 20 59 32 NO 1018,1 26 60 0,0
22.02.2018 12:00:00 0,6 -9,1 2,6 0,1 1,4 4,4 35 19 60 32 NO 1018,7 22 60 0,0
22.02.2018 11:00:00 -0,4 -8,6 1,6 0,1 1,4 4,4 37 20 58 31 NO 1018,9 30 60 0,0
22.02.2018 10:00:00 -1,4 -8,2 -0,2 0,1 1,5 4,4 - - - - - 1019,2 - 60 0,0
22.02.2018 09:00:00 -2,4 -7,6 -2,6 0,1 1,5 4,4 30 16 47 25 NO 1019,4 - 44 0,0
22.02.2018 08:00:00 -3,2 -7,4 -4,4 0,2 1,6 4,4 28 15 42 23 NO 1019,5 14 0 0,0
22.02.2018 07:00:00 -3,3 -7,3 -4,5 0,2 1,6 4,4 28 15 44 24 NO 1019,4 12 0 0,0
22.02.2018 06:00:00 -3,2 -7,2 -4,5 0,3 1,7 4,4 29 16 45 24 NO 1019,5 11 0 0,0
22.02.2018 05:00:00 -3,3 -7,1 -4,6 0,3 1,7 4,4 27 15 40 21 NO 1019,5 9 0 0,0
22.02.2018 04:00:00 -3,1 -6,8 -4,5 0,4 1,8 4,4 23 12 37 20 NO 1019,9 7 0 0,0
22.02.2018 03:00:00 -2,9 -6,7 -4,2 0,4 1,9 4,5 23 13 34 19 NO 1020,4 7 0 0,0
22.02.2018 02:00:00 -2,7 -6,5 -4,1 0,5 1,9 4,5 24 13 38 21 NO 1020,6 6 0 0,0
22.02.2018 01:00:00 -2,3 -6,3 -3,6 0,6 2,0 4,5 25 14 43 23 NO 1020,8 8 0 0,0
22.02.2018 00:00:00 -1,5 -6,2 -2,9 0,7 2,1 4,5 27 15 41 22 NO 1020,9 10 0 0,0
21.02.2018 23:00:00 -0,7 -6,1 -2,1 0,9 2,2 4,5 27 15 41 22 NO 1021,0 12 0 0,0
21.02.2018 22:00:00 -0,3 -6,3 -1,8 1,1 2,3 4,5 24 13 35 19 NO 1020,9 13 0 0,0
21.02.2018 21:00:00 0,1 -6,6 -1,5 1,3 2,4 4,5 22 12 33 18 NO 1020,8 14 0 0,0
21.02.2018 20:00:00 0,8 -6,6 -0,8 1,5 2,5 4,5 24 13 34 19 NO 1020,8 16 0 0,0
21.02.2018 19:00:00 1,7 -7,2 0,0 2,0 2,5 4,5 20 11 39 21 NNO 1020,7 19 0 0,0
21.02.2018 18:00:00 2,8 -7,2 1,2 3,2 2,4 4,5 27 15 45 24 NO 1019,9 18 46 0,0
21.02.2018 17:00:00 4,0 -7,1 3,2 5,0 2,2 4,4 25 14 38 21 NNO 1019,5 15 60 0,0
21.02.2018 16:00:00 4,6 -8,1 6,6 5,4 1,9 4,4 26 14 42 23 NO 1019,6 18 60 0,0
21.02.2018 15:00:00 4,5 -6,7 7,3 5,0 1,6 4,4 26 14 42 23 NO 1019,9 16 60 0,0
21.02.2018 14:00:00 3,8 -5,9 7,0 3,5 1,5 4,4 23 12 34 18 NO 1020,6 12 60 0,0
21.02.2018 13:00:00 2,8 -5,6 5,4 0,8 1,5 4,5 24 13 38 21 NO 1021,3 10 60 0,0
21.02.2018 12:00:00 1,5 -5,3 3,9 0,4 1,5 4,5 24 13 41 22 NO 1021,6 7 60 0,0
21.02.2018 11:00:00 0,8 -4,6 2,9 0,4 1,6 4,5 24 13 39 21 NO 1022,1 8 60 0,0
21.02.2018 10:00:00 -0,7 -4,9 0,6 0,4 1,6 4,5 24 13 37 20 NO 1022,4 6 60 0,0
21.02.2018 09:00:00 -1,6 -5,5 -2,0 0,4 1,6 4,5 21 11 29 16 NO 1022,3 7 18 0,0
21.02.2018 08:00:00 -2,2 -5,7 -3,5 0,5 1,7 4,5 16 8 26 14 NNO 1022,4 6 0 0,0
21.02.2018 07:00:00 -2,4 -5,7 -3,9 0,5 1,7 4,5 18 10 29 16 NO 1021,9 6 0 0,0
21.02.2018 06:00:00 -1,7 -5,7 -3,0 0,6 1,8 4,5 21 11 35 19 ONO 1021,5 7 0 0,0
21.02.2018 05:00:00 -1,1 -5,2 -1,5 0,6 1,8 4,5 21 12 31 17 NO 1021,5 6 0 0,0
21.02.2018 04:00:00 -1,2 -5,0 -1,5 0,6 1,9 4,5 17 9 25 14 NO 1021,6 6 0 0,0
21.02.2018 03:00:00 -1,2 -5,4 -1,6 0,7 2,0 4,5 18 10 28 15 NNO 1021,4 7 0 0,0
21.02.2018 02:00:00 -1,5 -5,4 -2,6 0,8 2,0 4,5 17 9 25 14 NO 1021,2 7 0 0,0
21.02.2018 01:00:00 -1,0 -5,1 -1,6 0,9 2,1 4,5 14 8 21 12 NO 1020,5 7 0 0,0
21.02.2018 00:00:00 -1,4 -4,7 -2,7 1,0 2,2 4,5 17 9 22 12 NO 1020,1 6 0 0,0
20.02.2018 23:00:00 -0,7 -4,0 -1,9 1,1 2,3 4,5 13 7 18 10 NNO 1019,9 8 0 0,0
20.02.2018 22:00:00 -0,6 -4,2 -1,0 1,3 2,4 4,5 13 7 16 9 NO 1019,7 9 0 0,0
20.02.2018 21:00:00 -0,4 -4,4 -2,7 1,5 2,5 4,5 9 5 15 8 NNO 1019,2 10 0 0,0
20.02.2018 20:00:00 0,3 -4,3 -2,7 1,9 2,6 4,5 5 3 16 8 N 1018,8 13 0 0,0
20.02.2018 19:00:00 0,9 -4,4 -1,4 2,8 2,6 4,5 12 6 22 12 NO 1018,1 13 0 0,0
20.02.2018 18:00:00 1,6 -4,5 -1,7 4,3 2,4 4,5 0 0 5 3 N 1017,6 14 8 0,0
20.02.2018 17:00:00 2,5 -5,1 3,1 4,9 2,2 4,5 0 0 9 5 N 1017,4 16 0 0,0
20.02.2018 16:00:00 2,4 -5,2 3,8 5,4 1,9 4,5 4 2 14 7 N 1016,9 17 0 0,0
20.02.2018 15:00:00 2,5 -4,8 4,1 5,6 1,5 4,5 10 5 18 10 NO 1017,0 17 3 0,0
20.02.2018 14:00:00 2,2 -5,8 6,3 4,6 1,3 4,5 6 3 19 10 NNO 1017,4 19 52 0,0
20.02.2018 13:00:00 2,5 -5,3 6,8 2,2 1,2 4,5 6 3 23 13 NO 1017,9 17 58 0,0
20.02.2018 12:00:00 0,6 -5,4 2,8 0,4 1,2 4,5 15 8 26 14 NO 1018,0 15 37 0,0
20.02.2018 11:00:00 -0,2 -5,1 0,2 0,4 1,3 4,5 14 8 25 14 NO 1017,9 13 33 0,0
20.02.2018 10:00:00 -0,9 -5,0 -0,3 0,4 1,3 4,5 14 8 21 11 NO 1018,2 10 12 0,0
20.02.2018 09:00:00 -1,5 -4,3 -1,4 0,4 1,3 4,5 13 7 19 10 NO 1018,4 8 0 0,0
20.02.2018 08:00:00 -2,1 -3,4 -2,1 0,4 1,3 4,5 11 6 17 9 NO 1018,1 4,3 0 0,0
20.02.2018 07:00:00 -1,9 -3,3 -2,1 0,4 1,3 4,5 9 5 13 7 NNO 1017,8 4,1 0 0,0
20.02.2018 06:00:00 -1,8 -3,5 -2,2 0,4 1,3 4,5 8 4 10 5 N 1017,7 5 0 0,0
20.02.2018 05:00:00 -1,6 -3,2 -1,9 0,4 1,3 4,5 7 4 12 6 NNO 1017,6 4,8 0 0,0
20.02.2018 04:00:00 -1,4 -3,3 -2,1 0,5 1,3 4,5 6 4 10 5 N 1017,4 6 0 0,0
20.02.2018 03:00:00 -1,6 -3,6 -4,0 0,5 1,3 4,5 7 4 8 5 NNO 1017,4 7 0 0,0
20.02.2018 02:00:00 -0,9 -3,7 -3,0 0,5 1,3 4,5 4 2 6 4 N 1017,5 9 0 0,0
20.02.2018 01:00:00 -0,7 -3,4 -1,6 0,5 1,4 4,6 5 3 6 3 NNO 1017,9 9 0 0,0
20.02.2018 00:00:00 -0,8 -3,4 -1,6 0,5 1,4 4,6 4 2 5 3 ONO 1017,9 9 0 0,0
19.02.2018 23:00:00 -0,6 -3,4 -1,5 0,5 1,4 4,6 3 2 7 4 NO 1018,1 9 0 0,0
19.02.2018 22:00:00 -0,3 -3,4 -0,8 0,5 1,4 4,6 0 0 8 4 N 1018,3 10 0 0,0
19.02.2018 21:00:00 -0,1 -3,7 -0,7 0,5 1,4 4,6 6 3 8 4 W 1018,6 14 0 0,0
19.02.2018 20:00:00 -0,2 -3,9 -0,8 0,7 1,4 4,6 4 2 6 3 W 1018,7 14 0 0,0

tt = temperatuur
td = dauwpunt
tt 5cm = temperatuur 5cm
tt -5cm = temperatuur -5cm
tt -20cm = temperatuur -20cm
tt -100cm = temperatuur -100cm
ff = windsnelheid
fx = windstoten
dd = windrichting
ppp = luchtdruk
vv = zicht
sd = Zonneschijnduur
rr = neerslag

Weerstations in de omgeving